Regional Weather Roundup
Issued by NWS

Home | Current Version | Previous Version | Text Only | Print | Product List | Glossary On
Versions: 1 2 3 4 5 6 7 8 9 10 11 12 13 14 15 16 17 18 19 20 21 22 23 24 25 26 27 28 29 30 31 32 33 34 35 36 37 38 39 40 41 42 43 44 45 46 47 48 49 50
376
ASUS44 KMEG 060510
RWRTN
TENNESSEE HOURLY STATE WEATHER ROUNDUP
NATIONAL WEATHER SERVICE MEMPHIS TN
1200 AM CDT FRI MAY 06 2016

TNZ002-004-019-021-049-052-054-088>092-060600-
WEST TENNESSEE

CITY           SKY/WX    TMP DP  RH WIND       PRES   REMARKS
MEMPHIS INTL   CLEAR     58  43  57 NE8       30.03R
NWS MEMPHIS      N/A     56 N/A N/A MISG        N/A
JACKSON        CLEAR     49  43  80 CALM      30.03R
DYERSBURG      PTCLDY    48  45  87 CALM      30.03S
UNION CITY     CLEAR     46  46 100 CALM      30.01S
LEXINGTON      CLEAR     43  43 100 CALM      30.00S
$$

TNZ008-025-027-028-033-062-065-066-060600-
NORTH MIDDLE TENNESSEE

CITY           SKY/WX    TMP DP  RH WIND       PRES   REMARKS
NASHVILLE      CLEAR     50  43  77 NW3       29.98S
CLARKSVILLE    CLEAR     47  43  86 W5        29.99S
SMYRNA         CLEAR     49  44  83 CALM      29.99S
COOKEVILLE     PTCLDY    45  43  93 CALM      29.94S
CROSSVILLE     CLEAR     45  41  86 NW6       29.93S
$$

TNZ061-075-076-078-094-096-097-060600-
SOUTH MIDDLE TENNESSEE

CITY           SKY/WX    TMP DP  RH WIND       PRES   REMARKS
TULLAHOMA      CLOUDY    48  45  87 NW8       29.97S
WINCHESTER     CLOUDY    48  43  81 N3        29.97S
MCMINNVILLE    PTCLDY    48  45  87 NW5       29.95F
COLUMBIA       CLEAR     48  48 100 CALM      29.97S
SHELBYVILLE    PTCLDY    48  45  87 NW5       29.98S
$$

TNZ017-018-042-046-047-060600-
NORTHEAST TENNESSEE

CITY           SKY/WX    TMP DP  RH WIND       PRES   REMARKS
TRI CITIES     CLOUDY    48  43  82 W6        29.83S
$$

TNZ012-013-036-069-073-074-060600-
CENTRAL EAST TENNESSEE

CITY           SKY/WX    TMP DP  RH WIND       PRES   REMARKS
KNOXVILLE      CLOUDY    49  42  77 SW7       29.91R
OAK RIDGE      PTCLDY    51  42  71 NW8       29.92S
GATLINBURG     CLOUDY    48  39  71 W3        29.90R
MORRISTOWN     CLOUDY    48  41  76 W7        29.87S
$$

TNZ083-085-099-060600-
SOUTHEAST TENNESSEE

CITY           SKY/WX    TMP DP  RH WIND       PRES   REMARKS
CHATTANOOGA    CLEAR     49  40  71 NW3       29.94S
$$

SKY/WX REPORTED AS FAIR MEANS FEW OR NO CLOUDS BELOW
12 THOUSAND FEET.





USA.gov is the U.S. government's official web portal to all federal, state and local government web resources and services.